GW3789 Weather Reports


Display with metric or nautical units.
time (UTC)temp
F
wind
direction
speed
MPH
gust
MPH
rain 1hr
in
rain 24hr
in
rain mn
in
humidity
%
barometer
mb
20260510224520 48 146 1.0 5.0 0.03 0.78 0.00 91 1010.2
20260510224008 48 98 1.0 5.0 0.04 0.78 0.00 91 1010.2
20260510223506 48 155 1.0 4.0 0.06 0.78 0.00 92 1010.3
20260510223027 48 112 1.0 4.0 0.08 0.78 0.00 92 1010.4
20260510222513 48 141 2.0 3.0 0.10 0.78 0.00 92 1010.5
20260510222017 47 129 1.0 3.0 0.11 0.78 0.00 92 1010.5
20260510221530 47 122 1.0 3.0 0.14 0.78 0.00 92 1010.5
20260510221003 47 122 1.0 3.0 0.14 0.78 0.00 92 1010.6
20260510220506 47 135 1.0 3.0 0.15 0.78 0.00 92 1010.7
20260510220016 47 129 0.0 2.0 0.16 0.77 0.00 92 1010.9
20260510215505 47 128 0.0 3.0 0.18 0.77 0.77 92 1010.9
20260510215010 47 128 1.0 4.0 0.20 0.75 0.75 92 1010.9
20260510214518 47 86 2.0 9.0 0.21 0.74 0.74 91 1010.8
20260510214006 47 123 2.0 9.0 0.21 0.74 0.74 91 1010.8
20260510213511 47 108 4.0 9.0 0.19 0.72 0.72 91 1011.1
20260510213005 47 122 2.0 4.0 0.18 0.70 0.70 91 1011.5
20260510212502 47 151 2.0 4.0 0.18 0.68 0.68 91 1011.6
20260510212007 47 164 2.0 5.0 0.18 0.66 0.66 91 1011.6
20260510211509 47 151 2.0 5.0 0.19 0.64 0.64 91 1011.6
20260510211004 47 218 1.0 3.0 0.21 0.63 0.63 91 1011.6
20260510210503 47 221 0.0 2.0 0.22 0.62 0.62 91 1011.7
20260510210011 47 146 0.0 2.0 0.30 0.61 0.61 91 1011.7
20260510205506 47 174 1.0 2.0 0.44 0.59 0.59 90 1011.6
20260510205003 47 139 0.0 2.0 0.43 0.55 0.55 90 1011.5
20260510204518 47 124 0.0 2.0 0.41 0.53 0.53 90 1011.0
20260510204007 47 126 0.0 2.0 0.41 0.52 0.52 90 1010.9
20260510203507 47 162 0.0 2.0 0.41 0.52 0.52 90 1011.0
20260510203020 47 186 0.0 3.0 0.40 0.51 0.51 90 1010.9
20260510202511 47 133 0.0 4.0 0.38 0.49 0.49 90 1011.0
20260510202012 47 132 2.0 4.0 0.37 0.48 0.48 89 1011.0
20260510201526 47 112 2.0 4.0 0.33 0.44 0.44 88 1011.0
20260510201008 48 144 1.0 6.0 0.31 0.42 0.42 87 1011.1
20260510200503 49 163 2.0 6.0 0.29 0.40 0.40 85 1011.1
20260510200015 51 42 2.0 7.0 0.19 0.30 0.30 85 1011.2
20260510195504 52 287 2.0 7.0 0.03 0.14 0.14 84 1010.9
20260510195003 53 274 3.0 7.0 0.00 0.11 0.11 80 1010.3
20260510194513 55 290 4.0 7.0 0.00 0.11 0.11 79 1009.9
20260510194010 55 101 0.0 1.0 0.00 0.11 0.11 81 1009.6
20260510193507 55 198 0.0 0.0 0.00 0.11 0.11 81 1009.5
20260510193016 55 203 0.0 1.0 0.00 0.11 0.11 81 1009.6
20260510192507 55 203 0.0 1.0 0.00 0.11 0.11 80 1009.6
20260510192009 55 123 0.0 1.0 0.00 0.11 0.11 80 1009.6
20260510191526 56 134 0.0 1.0 0.00 0.11 0.11 80 1009.6
20260510191007 56 162 0.0 1.0 0.00 0.11 0.11 80 1009.6
20260510190507 56 138 0.0 1.0 0.00 0.11 0.11 79 1009.6
20260510190028 56 139 0.0 1.0 0.00 0.11 0.11 79 1009.6
20260510185507 56 139 0.0 1.0 0.00 0.11 0.11 79 1009.4
20260510185003 56 139 0.0 1.0 0.00 0.11 0.11 78 1009.4
20260510184507 56 139 0.0 1.0 0.00 0.11 0.11 78 1009.4
20260510184008 57 139 0.0 0.0 0.00 0.11 0.11 78 1009.3
20260510183506 57 139 0.0 1.0 0.00 0.11 0.11 78 1009.4
20260510183012 57 139 0.0 1.0 0.00 0.11 0.11 77 1009.4
20260510182503 57 139 0.0 1.0 0.00 0.11 0.11 77 1009.3
20260510182006 57 139 0.0 1.0 0.00 0.11 0.11 77 1009.3
20260510181519 58 134 0.0 1.0 0.00 0.11 0.11 76 1009.3
20260510181008 58 136 0.0 1.0 0.00 0.11 0.11 76 1009.4
20260510180508 58 136 0.0 1.0 0.00 0.11 0.11 75 1009.4
20260510180022 59 136 0.0 1.0 0.00 0.11 0.11 73 1009.3
20260510175511 60 127 0.0 1.0 0.00 0.11 0.11 72 1009.3
20260510175011 60 151 0.0 2.0 0.00 0.11 0.11 72 1009.3
20260510174526 60 131 0.0 2.0 0.00 0.11 0.11 73 1009.2
20260510174010 60 112 0.0 1.0 0.00 0.11 0.11 73 1009.1
20260510173504 60 113 0.0 1.0 0.00 0.11 0.11 75 1009.0
20260510173008 59 111 0.0 1.0 0.00 0.11 0.11 74 1008.9
20260510172502 60 117 0.0 1.0 0.00 0.11 0.11 75 1008.9
20260510172007 59 95 0.0 3.0 0.00 0.11 0.11 76 1009.0
20260510171514 59 123 1.0 3.0 0.00 0.11 0.11 76 1009.1
20260510171006 59 116 0.0 2.0 0.00 0.11 0.11 76 1009.3
20260510170506 59 124 0.0 3.0 0.00 0.11 0.11 77 1009.3
20260510170019 59 114 0.0 3.0 0.00 0.11 0.11 77 1009.4
20260510165507 59 139 0.0 2.0 0.00 0.11 0.11 76 1009.5
20260510165008 59 136 1.0 2.0 0.00 0.11 0.11 75 1009.6
20260510164528 59 259 0.0 1.0 0.00 0.11 0.11 76 1009.6
20260510164007 59 127 0.0 2.0 0.00 0.11 0.11 75 1009.6
20260510163509 59 131 0.0 2.0 0.00 0.11 0.11 77 1009.7
20260510163026 59 135 0.0 1.0 0.00 0.11 0.11 77 1009.7
20260510162514 58 89 0.0 1.0 0.00 0.11 0.11 77 1009.7
20260510162008 58 119 0.0 2.0 0.00 0.11 0.11 76 1009.7
20260510161512 58 281 0.0 3.0 0.00 0.11 0.11 75 1009.6
20260510161009 58 266 1.0 4.0 0.00 0.11 0.11 74 1009.6
20260510160507 58 268 1.0 4.0 0.00 0.11 0.11 73 1009.4
20260510160014 58 259 1.0 5.0 0.00 0.11 0.11 72 1009.4
20260510155509 58 278 2.0 5.0 0.00 0.11 0.11 72 1009.4
20260510155010 58 292 2.0 8.0 0.00 0.11 0.11 73 1009.3
20260510154521 59 272 2.0 8.0 0.00 0.11 0.11 73 1009.4
20260510154009 59 302 2.0 5.0 0.00 0.11 0.11 74 1009.6
20260510153513 59 295 3.0 6.0 0.00 0.11 0.11 73 1009.6
20260510153022 60 300 3.0 6.0 0.00 0.11 0.11 72 1009.6
20260510152507 60 287 3.0 6.0 0.00 0.11 0.11 68 1009.6
20260510152011 60 295 3.0 6.0 0.00 0.11 0.11 67 1009.4
20260510151526 61 289 2.0 6.0 0.00 0.11 0.11 66 1009.4
20260510151011 62 234 1.0 6.0 0.00 0.11 0.11 67 1009.5
20260510150508 62 252 2.0 6.0 0.00 0.11 0.11 64 1009.6
20260510150028 62 94 0.0 6.0 0.00 0.11 0.11 69 1009.5
20260510145508 61 285 2.0 6.0 0.00 0.11 0.11 68 1009.5
20260510145011 61 283 2.0 7.0 0.00 0.11 0.11 67 1009.5
20260510144527 62 280 3.0 7.0 0.00 0.11 0.11 68 1009.5
20260510144010 62 284 2.0 6.0 0.00 0.11 0.11 68 1009.6
20260510143506 61 309 3.0 6.0 0.00 0.11 0.11 69 1009.6
20260510143023 60 285 2.0 7.0 0.00 0.11 0.11 70 1009.7
20260510142510 60 187 2.0 7.0 0.00 0.11 0.11 70 1009.7
20260510142011 60 306 3.0 7.0 0.00 0.11 0.11 69 1009.7
20260510141534 61 274 2.0 7.0 0.00 0.11 0.11 70 1009.7
20260510141006 61 282 3.0 6.0 0.00 0.11 0.11 70 1009.7
20260510140509 61 290 1.0 6.0 0.00 0.11 0.11 70 1009.7
20260510140030 62 260 2.0 6.0 0.00 0.11 0.11 68 1009.8
20260510135519 62 249 3.0 7.0 0.00 0.11 0.11 66 1009.7
20260510135011 64 110 2.0 7.0 0.00 0.11 0.11 69 1009.7
20260510134526 63 252 2.0 6.0 0.00 0.11 0.11 69 1009.8
20260510134010 62 286 1.0 5.0 0.00 0.11 0.11 72 1009.9
20260510133509 62 259 2.0 5.0 0.00 0.11 0.11 69 1009.8
20260510133028 62 274 1.0 5.0 0.00 0.11 0.11 69 1009.9
20260510132508 62 288 2.0 5.0 0.00 0.11 0.11 72 1009.9
20260510132009 62 282 1.0 3.0 0.00 0.11 0.11 75 1009.9
20260510131529 62 243 0.0 4.0 0.00 0.11 0.11 75 1010.0
20260510131010 62 138 1.0 4.0 0.00 0.11 0.11 75 1010.0
20260510130503 62 122 1.0 3.0 0.00 0.11 0.11 78 1010.2
20260510130005 61 111 1.0 3.0 0.00 0.11 0.11 80 1010.2
20260510125503 60 132 1.0 3.0 0.00 0.11 0.11 83 1010.2
20260510125006 59 129 1.0 3.0 0.00 0.11 0.11 79 1010.4
20260510124513 59 137 0.0 4.0 0.00 0.11 0.11 80 1010.4
20260510124006 59 160 0.0 4.0 0.00 0.11 0.11 80 1010.4
20260510123505 59 146 1.0 4.0 0.00 0.11 0.11 80 1010.5
20260510123005 60 96 2.0 4.0 0.00 0.11 0.11 80 1010.5
20260510122502 60 105 2.0 5.0 0.00 0.11 0.11 81 1010.6
20260510122002 59 146 1.0 5.0 0.03 0.11 0.11 86 1010.6
20260510121504 57 95 3.0 5.0 0.04 0.11 0.11 85 1010.6
20260510121004 56 150 0.0 7.0 0.07 0.11 0.11 84 1010.7
20260510120503 56 124 1.0 7.0 0.11 0.11 0.11 83 1010.8
20260510120007 56 106 3.0 6.0 0.10 0.10 0.10 82 1010.8
20260510115504 55 160 2.0 5.0 0.10 0.10 0.10 85 1011.0
20260510115003 54 137 1.0 3.0 0.10 0.10 0.10 85 1010.9
20260510114509 54 196 1.0 3.0 0.10 0.10 0.10 83 1011.1
20260510114003 54 232 0.0 3.0 0.10 0.10 0.10 83 1011.1
20260510113506 54 142 0.0 3.0 0.10 0.10 0.10 83 1011.1
20260510113013 55 137 1.0 6.0 0.10 0.10 0.10 84 1011.0
20260510112505 56 155 1.0 6.0 0.10 0.10 0.10 81 1011.0
20260510112006 57 278 1.0 5.0 0.07 0.07 0.07 80 1011.2
20260510111514 59 130 0.0 5.0 0.06 0.06 0.06 78 1011.0
20260510111002 61 245 1.0 5.0 0.03 0.03 0.03 73 1010.9
20260510110502 61 271 1.0 6.0 0.00 0.00 0.00 69 1010.8
20260510110004 62 179 1.0 6.0 0.00 0.00 0.00 69 1010.8
20260510105505 63 244 1.0 6.0 0.00 0.00 0.00 67 1010.8
20260510105006 62 114 1.0 7.0 0.00 0.00 0.00 68 1010.8
20260510104506 63 354 1.0 7.0 0.00 0.00 0.00 65 1010.9
20260510104003 64 155 1.0 5.0 0.00 0.00 0.00 66 1011.0
20260510103503 63 130 2.0 5.0 0.00 0.00 0.00 67 1011.0
20260510103008 62 255 1.0 5.0 0.00 0.00 0.00 69 1011.1
20260510102504 63 27 1.0 6.0 0.00 0.00 0.00 66 1011.1
20260510102008 63 127 2.0 7.0 0.00 0.00 0.00 67 1011.1
20260510101512 62 132 3.0 10.0 0.00 0.00 0.00 71 1011.1
20260510101007 63 150 4.0 10.0 0.00 0.00 0.00 67 1011.2
20260510100508 64 154 1.0 5.0 0.00 0.00 0.00 68 1011.1
20260510100018 64 158 2.0 5.0 0.00 0.00 0.00 68 1011.1
20260510095503 63 134 2.0 5.0 0.00 0.00 0.00 70 1011.1
20260510095003 61 117 1.0 5.0 0.00 0.00 0.00 71 1011.0
20260510094503 61 129 1.0 4.0 0.00 0.00 0.00 69 1011.1
20260510094002 61 122 2.0 7.0 0.00 0.00 0.00 71 1011.0
20260510093502 60 122 2.0 10.0 0.00 0.00 0.00 73 1011.0
20260510093010 59 259 4.0 10.0 0.00 0.00 0.00 73 1010.9
20260510092504 60 136 4.0 8.0 0.00 0.00 0.00 72 1010.9
20260510092004 60 290 2.0 8.0 0.00 0.00 0.00 71 1011.0
20260510091514 60 170 4.0 8.0 0.00 0.00 0.00 73 1011.0
20260510091011 59 114 4.0 8.0 0.00 0.00 0.00 73 1011.0
20260510090507 59 229 4.0 9.0 0.00 0.00 0.00 72 1011.0
20260510090019 59 134 4.0 9.0 0.00 0.00 0.00 72 1011.0
20260510085506 59 139 3.0 8.0 0.00 0.00 0.00 72 1011.0
20260510085006 58 169 3.0 8.0 0.00 0.00 0.00 77 1011.0
20260510084520 57 120 3.0 8.0 0.00 0.00 0.00 75 1011.0
20260510084007 57 124 2.0 11.0 0.00 0.00 0.00 77 1011.0
20260510083506 56 115 4.0 11.0 0.00 0.00 0.00 75 1011.0
20260510083004 56 129 2.0 9.0 0.00 0.00 0.00 76 1011.0
20260510082503 56 156 3.0 9.0 0.00 0.00 0.00 76 1011.0
20260510082002 56 149 4.0 9.0 0.00 0.00 0.00 75 1011.0
20260510081525 56 122 4.0 9.0 0.00 0.00 0.00 75 1011.1
20260510081004 56 157 5.0 8.0 0.00 0.00 0.00 74 1011.1
20260510080504 57 143 3.0 10.0 0.00 0.00 0.00 73 1011.1
20260510080011 57 130 3.0 10.0 0.00 0.00 0.00 74 1011.1
20260510075503 57 203 4.0 11.0 0.00 0.00 0.00 73 1011.1
20260510075006 58 178 5.0 11.0 0.00 0.00 0.00 72 1011.2
20260510074516 58 206 5.0 12.0 0.00 0.00 0.00 70 1011.2
20260510074009 59 166 5.0 12.0 0.00 0.00 0.00 69 1011.2
20260510073508 60 135 3.0 8.0 0.00 0.00 0.00 70 1011.1
20260510073020 60 150 2.0 7.0 0.00 0.00 0.00 70 1011.1
20260510072508 59 175 2.0 7.0 0.00 0.00 0.00 70 1011.1
20260510072008 58 210 2.0 7.0 0.00 0.00 0.00 71 1011.1
20260510071508 59 164 2.0 6.0 0.00 0.00 0.00 70 1011.1
20260510071003 59 122 2.0 5.0 0.00 0.00 0.00 72 1011.1
20260510070503 58 107 1.0 4.0 0.00 0.00 0.00 71 1011.0
20260510070011 57 111 1.0 4.0 0.00 0.00 0.00 74 1011.0
20260510065504 55 94 0.0 2.0 0.00 0.00 0.00 73 1011.0
20260510065004 55 288 0.0 2.0 0.00 0.00 0.00 73 1011.0
20260510064513 55 265 0.0 2.0 0.00 0.00 0.00 72 1010.8
20260510064007 54 95 0.0 2.0 0.00 0.00 0.00 75 1010.8
20260510063506 54 94 0.0 1.0 0.00 0.00 0.00 77 1010.9
20260510063025 54 100 0.0 1.0 0.00 0.00 0.00 78 1010.9
20260510062507 53 271 0.0 1.0 0.00 0.00 0.00 79 1010.9
20260510062008 52 271 0.0 1.0 0.00 0.00 0.00 77 1010.8
20260510061531 52 284 0.0 1.0 0.00 0.00 0.00 78 1010.9
20260510061010 52 274 0.0 1.0 0.00 0.00 0.00 76 1010.9
20260510060510 51 269 0.0 1.0 0.00 0.00 0.00 76 1010.8
20260510060038 51 297 0.0 1.0 0.00 0.00 0.00 76 1010.8
20260510055505 50 316 0.0 1.0 0.00 0.00 0.00 78 1010.8
20260510055004 50 316 0.0 2.0 0.00 0.00 0.00 78 1010.8
20260510054516 50 319 1.0 2.0 0.00 0.00 0.00 78 1010.9
20260510054007 50 302 1.0 2.0 0.00 0.00 0.00 77 1010.9
20260510053508 50 309 1.0 2.0 0.00 0.00 0.00 77 1010.9
20260510053034 50 337 0.0 1.0 0.00 0.00 0.00 77 1010.8
20260510052509 50 155 0.0 1.0 0.00 0.00 0.00 78 1010.8
20260510052008 50 139 0.0 1.0 0.00 0.00 0.00 77 1010.8
20260510051524 51 139 0.0 1.0 0.00 0.00 0.00 76 1010.8
20260510051007 52 131 0.0 1.0 0.00 0.00 0.00 75 1010.9
20260510050508 52 127 0.0 1.0 0.00 0.00 0.00 74 1010.9
20260510050023 53 127 0.0 1.0 0.00 0.00 0.00 72 1011.0
20260510045508 53 245 0.0 1.0 0.00 0.00 0.00 72 1011.0
20260510045012 53 138 0.0 1.0 0.00 0.00 0.00 71 1011.0
20260510044541 53 141 0.0 1.0 0.00 0.00 0.00 70 1011.0
20260510044009 53 207 0.0 2.0 0.00 0.00 0.00 69 1011.0
20260510043507 53 147 0.0 5.0 0.00 0.00 0.00 69 1011.0
20260510043013 53 122 2.0 6.0 0.00 0.00 0.00 69 1011.0
20260510042504 53 72 2.0 6.0 0.00 0.00 0.00 70 1011.0
20260510042007 53 96 1.0 5.0 0.00 0.00 0.00 69 1011.0
20260510041518 53 127 1.0 5.0 0.00 0.00 0.00 70 1011.0
20260510041007 53 125 2.0 5.0 0.00 0.00 0.00 70 1011.0
20260510040508 53 118 2.0 5.0 0.00 0.00 0.00 71 1011.1
20260510040036 53 125 1.0 4.0 0.00 0.00 0.00 71 1011.2
20260510035505 52 142 1.0 4.0 0.00 0.00 0.00 71 1011.2
20260510035007 52 126 2.0 4.0 0.00 0.00 0.00 72 1011.2
20260510034508 51 91 1.0 3.0 0.00 0.00 0.00 72 1011.3
20260510034003 52 97 0.0 4.0 0.00 0.00 0.00 71 1011.4
20260510033504 52 101 0.0 4.0 0.00 0.00 0.00 70 1011.5
20260510033011 52 129 0.0 3.0 0.00 0.00 0.00 70 1011.4
20260510032503 52 89 1.0 3.0 0.00 0.00 0.00 69 1011.3
20260510032006 52 138 1.0 3.0 0.00 0.00 0.00 69 1011.3
20260510031516 52 121 1.0 3.0 0.00 0.00 0.00 68 1011.3
20260510031007 52 144 1.0 3.0 0.00 0.00 0.00 68 1011.3
20260510030511 52 129 0.0 2.0 0.00 0.00 0.00 69 1011.4
20260510030020 52 143 0.0 2.0 0.00 0.00 0.00 69 1011.5
20260510025511 52 139 0.0 2.0 0.00 0.00 0.00 68 1011.6
20260510025006 52 155 0.0 4.0 0.00 0.00 0.00 68 1011.6
20260510024523 52 148 0.0 4.0 0.00 0.00 0.00 68 1011.7
20260510024006 52 127 1.0 3.0 0.00 0.00 0.00 68 1011.6
20260510023506 52 153 0.0 2.0 0.00 0.00 0.00 69 1011.6
20260510023027 52 124 0.0 2.0 0.00 0.00 0.00 69 1011.7
20260510022504 52 135 0.0 2.0 0.00 0.00 0.00 68 1011.7
20260510022003 52 137 0.0 2.0 0.00 0.00 0.00 68 1011.7
20260510021512 53 128 0.0 4.0 0.00 0.00 0.00 68 1011.7
20260510021007 52 123 1.0 4.0 0.00 0.00 0.00 68 1011.7
20260510020507 52 146 0.0 2.0 0.00 0.00 0.00 67 1011.7
20260510020021 52 179 0.0 1.0 0.00 0.00 0.00 67 1011.7
20260510015507 52 127 0.0 1.0 0.00 0.00 0.00 67 1011.7
20260510015012 52 226 0.0 2.0 0.00 0.00 0.00 67 1011.6
20260510014521 53 148 1.0 2.0 0.00 0.00 0.00 67 1011.7
20260510014006 53 218 1.0 3.0 0.00 0.00 0.00 66 1011.7
20260510013507 53 128 0.0 7.0 0.00 0.00 0.00 66 1011.8
20260510013025 53 247 1.0 7.0 0.00 0.00 0.00 66 1011.8
20260510012506 53 142 1.0 4.0 0.00 0.00 0.00 65 1011.9
20260510012010 53 127 2.0 4.0 0.00 0.00 0.00 65 1012.0
20260510011526 53 112 1.0 4.0 0.00 0.00 0.00 65 1012.0
20260510011006 53 152 2.0 4.0 0.00 0.00 0.00 64 1012.0
20260510010505 53 143 1.0 4.0 0.00 0.00 0.00 64 1012.1
20260510010011 53 87 1.0 5.0 0.00 0.00 0.00 64 1012.1
20260510005506 53 136 1.0 5.0 0.00 0.00 0.00 64 1012.2
20260510005002 53 140 1.0 4.0 0.00 0.00 0.00 64 1012.2
20260510004518 53 141 1.0 4.0 0.00 0.00 0.00 63 1012.3
20260510004005 53 127 1.0 4.0 0.00 0.00 0.00 63 1012.3
20260510003506 53 101 1.0 4.0 0.00 0.00 0.00 63 1012.4
20260510003024 53 134 1.0 4.0 0.00 0.00 0.00 62 1012.5
20260510002510 53 117 1.0 4.0 0.00 0.00 0.00 62 1012.6
20260510002008 53 160 0.0 2.0 0.00 0.00 0.00 62 1012.7
20260510001524 53 121 0.0 2.0 0.00 0.00 0.00 61 1012.7
20260510001010 54 130 0.0 2.0 0.00 0.00 0.00 61 1012.7
20260510000507 54 278 0.0 3.0 0.00 0.00 0.00 61 1012.7
20260510000026 54 272 0.0 3.0 0.00 0.00 0.00 60 1012.7
20260509235509 53 293 0.0 3.0 0.00 0.00 0.00 60 1012.7
20260509235010 54 260 0.0 3.0 0.00 0.00 0.00 60 1012.8
20260509234520 53 280 2.0 4.0 0.00 0.00 0.00 60 1012.8
20260509234011 54 291 1.0 4.0 0.00 0.00 0.00 60 1012.9
20260509233506 54 288 2.0 4.0 0.00 0.00 0.00 60 1012.9
20260509233019 54 290 3.0 4.0 0.00 0.00 0.00 60 1012.9
20260509232506 54 279 2.0 3.0 0.00 0.00 0.00 59 1012.9
20260509232008 54 280 1.0 2.0 0.00 0.00 0.00 60 1012.9
20260509231522 54 221 0.0 2.0 0.00 0.00 0.00 60 1012.9
20260509231006 54 96 0.0 2.0 0.00 0.00 0.00 60 1012.9
20260509230510 54 121 0.0 2.0 0.00 0.00 0.00 60 1012.9
20260509230028 54 282 0.0 3.0 0.00 0.00 0.00 60 1012.9
20260509225508 55 136 0.0 3.0 0.00 0.00 0.00 60 1013.0
20260509225009 55 134 1.0 5.0 0.00 0.00 0.00 59 1012.9